This is the latest recevied weather packets stored in our database for station/object W5GGH. If no packets are shown the sender has not sent any weather packets the latest 1 day(s).
| Time | Temp. | Humidity | Pressure | Rain* | Wind** | Luminosity | Snow |
|---|---|---|---|---|---|---|---|
| 1778049533 | 16.67° C | 77% | 1026.6 hPa | 0 mm | 1.34 m/s, 328° | 0 W/m² | - |
| 1778049231 | 16.67° C | 77% | 1026.5 hPa | 0 mm | 1.79 m/s, 24° | 0 W/m² | - |
| 1778048929 | 16.67° C | 77% | 1026.6 hPa | 0 mm | 0.89 m/s, 6° | 0 W/m² | - |
| 1778048626 | 16.67° C | 77% | 1026.5 hPa | 0 mm | 1.34 m/s, 311° | 0 W/m² | - |
| 1778048322 | 16.67° C | 76% | 1026.3 hPa | 0 mm | 3.13 m/s, 354° | 0 W/m² | - |
| 1778048019 | 16.67° C | 76% | 1026.4 hPa | 0 mm | 1.79 m/s, 341° | 0 W/m² | - |
| 1778047717 | 16.67° C | 76% | 1026.5 hPa | 0 mm | 1.79 m/s, 347° | 0 W/m² | - |
| 1778047415 | 17.22° C | 76% | 1026.4 hPa | 0 mm | 1.79 m/s, 18° | 0 W/m² | - |
| 1778047111 | 17.22° C | 75% | 1026.4 hPa | 0 mm | 1.34 m/s, 94° | 0 W/m² | - |
| 1778046808 | 17.22° C | 76% | 1026.4 hPa | 0 mm | 0.89 m/s, 356° | 0 W/m² | - |
| 1778046506 | 17.22° C | 75% | 1026.4 hPa | 0 mm | 1.79 m/s, 28° | 0 W/m² | - |
| 1778046202 | 17.22° C | 74% | 1026.4 hPa | 0 mm | 2.24 m/s, 13° | 0 W/m² | - |
| 1778045899 | 17.78° C | 74% | 1026.4 hPa | 0 mm | 3.58 m/s, 17° | 0 W/m² | - |
| 1778045598 | 17.78° C | 75% | 1026.5 hPa | 0 mm | 0.89 m/s, 42° | 0 W/m² | - |
| 1778045295 | 17.78° C | 74% | 1026.5 hPa | 0 mm | 1.34 m/s, 16° | 0 W/m² | - |
| 1778044993 | 17.78° C | 74% | 1026.6 hPa | 0 mm | 1.34 m/s, 35° | 0 W/m² | - |
| 1778044691 | 17.78° C | 74% | 1026.5 hPa | 0 mm | 2.24 m/s, 357° | 0 W/m² | - |
| 1778044387 | 17.78° C | 74% | 1026.4 hPa | 0 mm | 0.89 m/s, 345° | 0 W/m² | - |
| 1778044085 | 17.78° C | 74% | 1026.5 hPa | 0 mm | 1.34 m/s, 1° | 0 W/m² | - |
| 1778043782 | 18.33° C | 73% | 1026.6 hPa | 0 mm | 0.89 m/s, 353° | 0 W/m² | - |
| 1778043478 | 18.33° C | 73% | 1026.4 hPa | 0 mm | 1.79 m/s, 0° | 0 W/m² | - |
| 1778043175 | 18.33° C | 73% | 1026.4 hPa | 0 mm | 2.24 m/s, 358° | 0 W/m² | - |
| 1778042872 | 18.33° C | 73% | 1026.4 hPa | 0 mm | 1.79 m/s, 35° | 0 W/m² | - |
| 1778042570 | 18.33° C | 73% | 1026.3 hPa | 0 mm | 1.79 m/s, 334° | 0 W/m² | - |
| 1778042267 | 18.89° C | 73% | 1026.4 hPa | 0 mm | 2.24 m/s, 328° | 0 W/m² | - |
* Rain latest hour (hover to see other rain measurements)
** Current wind speed in m/s (hover to see current wind gust speed)